TimeCDT,TemperatureF,Dew PointF,Humidity,Sea Level PressureIn,VisibilityMPH,Wind Direction,Wind SpeedMPH,Gust SpeedMPH,PrecipitationIn,Events,Conditions,WindDirDegrees,DateUTC
12:15 AM,70.2,65.3,85,29.87,10.0,South,10.4,-,N/A,,Clear,180,2013-06-25 05:15:00
12:35 AM,70.2,64.6,82,29.86,10.0,South,10.4,-,N/A,,Clear,170,2013-06-25 05:35:00
12:55 AM,70.2,64.4,82,29.85,10.0,South,11.5,-,N/A,,Clear,170,2013-06-25 05:55:00
1:15 AM,70.2,64.4,82,29.85,10.0,South,8.1,-,N/A,,Clear,170,2013-06-25 06:15:00
1:35 AM,70.2,64.9,83,29.84,10.0,South,8.1,-,N/A,,Clear,170,2013-06-25 06:35:00
1:55 AM,70.2,65.5,85,29.84,10.0,South,9.2,-,N/A,,Clear,170,2013-06-25 06:55:00
2:15 AM,70.2,65.7,86,29.84,10.0,SSE,5.8,-,N/A,,Clear,160,2013-06-25 07:15:00
2:35 AM,70.2,66.6,88,29.85,10.0,SSE,5.8,-,N/A,,Clear,160,2013-06-25 07:35:00
2:55 AM,70.2,66.7,89,29.85,10.0,SSE,4.6,-,N/A,,Scattered Clouds,160,2013-06-25 07:55:00
3:15 AM,70.2,66.7,89,29.84,10.0,SSE,6.9,-,N/A,,Scattered Clouds,150,2013-06-25 08:15:00
3:35 AM,70.2,67.1,90,29.83,10.0,SSE,5.8,-,N/A,,Scattered Clouds,160,2013-06-25 08:35:00
3:55 AM,70.2,67.1,90,29.83,5.0,SE,3.5,-,0.03,Rain,Heavy Rain,140,2013-06-25 08:55:00
4:15 AM,70.2,67.5,91,29.82,7.0,SSE,6.9,-,0.01,Rain,Light Rain,150,2013-06-25 09:15:00
4:35 AM,70.2,67.5,91,29.82,10.0,SSE,4.6,-,0.01,,Scattered Clouds,150,2013-06-25 09:35:00
4:55 AM,70.2,67.5,91,29.82,10.0,SSE,6.9,-,0.01,,Scattered Clouds,160,2013-06-25 09:55:00
5:15 AM,70.2,67.5,91,29.84,7.0,Calm,Calm,-,0.01,Rain,Light Rain,0,2013-06-25 10:15:00
5:35 AM,70.2,67.1,90,29.83,10.0,SW,9.2,-,0.04,Rain,Rain,230,2013-06-25 10:35:00
5:55 AM,70.9,67.3,88,29.82,10.0,Calm,Calm,-,0.10,Rain,Light Rain,0,2013-06-25 10:55:00
6:15 AM,70.2,67.1,90,29.84,7.0,Calm,Calm,-,N/A,Rain,Light Rain,0,2013-06-25 11:15:00
6:35 AM,70.2,67.5,91,29.84,7.0,ENE,3.5,-,N/A,,Clear,60,2013-06-25 11:35:00
6:55 AM,70.2,68.0,93,29.87,5.0,Calm,Calm,-,N/A,,Mostly Cloudy,0,2013-06-25 11:55:00
7:15 AM,70.2,68.0,93,29.87,5.0,ENE,3.5,-,N/A,,Scattered Clouds,60,2013-06-25 12:15:00
7:35 AM,70.2,68.0,93,29.88,5.0,ESE,5.8,-,N/A,,Clear,110,2013-06-25 12:35:00
7:55 AM,70.2,67.5,91,29.88,7.0,ESE,5.8,-,N/A,,Clear,110,2013-06-25 12:55:00
8:15 AM,70.2,67.1,90,29.88,10.0,SSE,6.9,-,N/A,,Clear,150,2013-06-25 13:15:00
8:35 AM,72.7,69.4,90,29.88,7.0,SSE,5.8,-,N/A,,Clear,160,2013-06-25 13:35:00
8:55 AM,75.2,71.2,87,29.88,10.0,South,9.2,-,N/A,,Clear,180,2013-06-25 13:55:00
9:15 AM,75.2,70.2,84,29.86,10.0,South,10.4,-,N/A,,Clear,180,2013-06-25 14:15:00
9:35 AM,77.5,70.9,80,29.85,10.0,SSE,17.3,21.9,N/A,,Clear,160,2013-06-25 14:35:00
9:55 AM,75.2,69.1,81,29.84,10.0,South,8.1,-,N/A,,Clear,180,2013-06-25 14:55:00
10:15 AM,77.9,71.1,79,29.83,10.0,South,10.4,16.1,N/A,,Clear,180,2013-06-25 15:15:00
10:35 AM,77.9,70.9,79,29.84,10.0,SSW,13.8,17.3,N/A,,Clear,200,2013-06-25 15:35:00
10:55 AM,79.2,71.6,78,29.84,10.0,SSW,9.2,-,N/A,,Clear,200,2013-06-25 15:55:00
11:15 AM,80.2,71.1,73,29.85,10.0,SSW,15.0,-,N/A,,Clear,210,2013-06-25 16:15:00
11:35 AM,80.8,71.1,72,29.85,10.0,SSW,11.5,18.4,N/A,,Clear,210,2013-06-25 16:35:00
11:55 AM,81.3,71.2,71,29.84,10.0,SSW,12.7,17.3,N/A,,Clear,200,2013-06-25 16:55:00
12:15 PM,80.2,70.9,73,29.82,10.0,South,8.1,-,N/A,,Clear,170,2013-06-25 17:15:00
12:35 PM,80.2,70.5,72,29.82,10.0,South,10.4,-,N/A,,Clear,190,2013-06-25 17:35:00
12:55 PM,81.5,71.1,70,29.81,7.0,South,8.1,-,N/A,,Clear,180,2013-06-25 17:55:00
1:15 PM,82.8,71.1,68,29.82,10.0,South,15.0,-,N/A,,Clear,190,2013-06-25 18:15:00
1:35 PM,81.5,71.4,71,29.83,10.0,SSW,12.7,-,N/A,,Scattered Clouds,210,2013-06-25 18:35:00
1:55 PM,81.5,70.3,69,29.82,10.0,SSW,16.1,-,N/A,,Scattered Clouds,210,2013-06-25 18:55:00
2:15 PM,82.8,71.6,69,29.81,10.0,SSW,10.4,-,N/A,,Scattered Clouds,210,2013-06-25 19:15:00
2:35 PM,82.9,71.6,68,29.81,10.0,SW,11.5,-,N/A,,Clear,220,2013-06-25 19:35:00
2:55 PM,82.8,70.0,65,29.81,10.0,SSW,13.8,-,N/A,,Clear,200,2013-06-25 19:55:00
3:15 PM,83.5,70.2,64,29.81,10.0,SSW,11.5,-,N/A,,Clear,200,2013-06-25 20:15:00
3:35 PM,87.8,72.5,60,29.80,10.0,SSW,15.0,-,N/A,,Clear,210,2013-06-25 20:35:00
3:55 PM,90.5,71.6,54,29.80,10.0,SW,10.4,18.4,N/A,,Clear,220,2013-06-25 20:55:00
4:15 PM,90.5,71.8,54,29.79,10.0,SSW,10.4,-,N/A,,Clear,210,2013-06-25 21:15:00
4:35 PM,90.5,72.0,54,29.79,10.0,SSW,10.4,-,N/A,,Clear,210,2013-06-25 21:35:00
4:55 PM,87.8,72.7,61,29.79,10.0,SSW,9.2,-,N/A,,Clear,210,2013-06-25 21:55:00
5:15 PM,85.3,69.8,60,29.78,10.0,SSW,8.1,-,N/A,,Clear,200,2013-06-25 22:15:00
5:35 PM,84.4,69.8,61,29.78,10.0,SSW,6.9,-,N/A,,Clear,210,2013-06-25 22:35:00
5:55 PM,87.6,71.8,59,29.77,10.0,South,6.9,-,N/A,,Clear,190,2013-06-25 22:55:00
6:15 PM,84.4,69.4,61,29.77,10.0,South,4.6,-,N/A,,Clear,180,2013-06-25 23:15:00
6:35 PM,84.2,70.2,63,29.77,10.0,Calm,Calm,-,N/A,,Clear,0,2013-06-25 23:35:00
6:55 PM,84.2,70.5,63,29.78,10.0,South,3.5,-,N/A,,Clear,170,2013-06-25 23:55:00
7:15 PM,83.5,71.4,67,29.78,10.0,SSE,3.5,-,N/A,,Clear,160,2013-06-26 00:15:00
7:35 PM,82.8,72.7,71,29.78,10.0,SSE,4.6,-,N/A,,Clear,150,2013-06-26 00:35:00
7:55 PM,82.4,71.8,70,29.78,10.0,SSE,5.8,-,N/A,,Clear,150,2013-06-26 00:55:00
8:15 PM,81.3,71.6,72,29.78,10.0,SE,5.8,-,N/A,,Clear,130,2013-06-26 01:15:00
8:35 PM,80.2,71.6,75,29.78,10.0,South,5.8,-,N/A,,Clear,170,2013-06-26 01:35:00
8:55 PM,80.2,72.5,77,29.78,10.0,South,6.9,-,N/A,,Clear,170,2013-06-26 01:55:00
9:15 PM,80.2,71.4,74,29.78,10.0,South,6.9,-,N/A,,Clear,190,2013-06-26 02:15:00
9:35 PM,80.2,71.1,73,29.78,10.0,South,10.4,-,N/A,,Scattered Clouds,190,2013-06-26 02:35:00
9:55 PM,80.2,71.2,74,29.78,10.0,South,9.2,-,N/A,,Clear,180,2013-06-26 02:55:00
10:15 PM,80.2,71.6,75,29.79,10.0,South,8.1,-,N/A,,Scattered Clouds,170,2013-06-26 03:15:00
10:35 PM,80.2,71.6,75,29.79,10.0,South,6.9,-,N/A,,Scattered Clouds,170,2013-06-26 03:35:00
10:55 PM,77.9,69.8,76,29.76,10.0,SSE,5.8,-,N/A,,Scattered Clouds,160,2013-06-26 03:55:00
11:15 PM,77.9,69.8,76,29.76,10.0,SSE,12.7,-,N/A,,Scattered Clouds,160,2013-06-26 04:15:00
11:35 PM,80.2,70.7,73,29.74,10.0,South,10.4,-,N/A,,Mostly Cloudy,190,2013-06-26 04:35:00
11:55 PM,77.9,70.3,77,29.75,10.0,SSE,6.9,-,N/A,,Mostly Cloudy,160,2013-06-26 04:55:00